Powrót do katalogu

STARLINK-3625

AktywnyŁącznośćVLEO
NORAD 51777·PAYLOAD·🇺🇸 United States

Wystrzelony Feb 25, 2022 z Vandenberg Space Force Base

Loading…

Następne Przeloty (najbliższe 24 godziny)

TLE

ŚwieżeSource: CelesTrak SupGP

Epoka: Sep 14, 2026, 20:37 UTC

1 51777C 22017K   26257.85951389 -.00002416  00000+0 -69094-4 0  2572
2 51777  53.1587 198.3396 0001372 101.9111 182.6890 15.35408441    14

Śledź STARLINK-3625 w czasie rzeczywistym z AllMySat

Download on the App Store